Terug naar catalogus

COSMOS 397 DEB

ActiefLEO
NORAD 6843·DEBRIS·🇷🇺 Russia

Gelanceerd Feb 25, 1971 vanaf Baikonur Cosmodrome

Loading…

Volgende Passages (komende 24 uur)

TLE

VersSource: Space-Track

Epoch: Sep 13, 2026, 10:20 UTC

1 06843U 71015CK  26256.43105676  .00006423  00000-0  83867-3 0  9998
2 06843  65.6589 267.0938 0324975 261.0393  95.3798 14.50560257741896

Volg COSMOS 397 DEB in realtime met AllMySat

Download on the App Store